Skip Navigation Links weather.gov 
NOAA logo-Select to go to the NOAA homepage NDBC Title GraphicClick to go to NDBC home page   Select to go to the NWS homepage
Home About Us Contact Us
 
 
    
    Station List

 Data Access
    Mobile Access
    Classic Maps
         Recent
         DART®
    Obs Search
    Ship Obs Report
    BuoyCAMs
    TAO
    DODS
    OceanSITES
    HF Radar
    OSMC
    Dial-A-Buoy
    RSS Feeds Image indicating link to RSS feed access page
    Web Widget
    Email Access
    Web Data Guide
    Maintenance Schedule
    Station Status Report

 Program Info
    TAO
    DART®
    IOOS®

 Publications
    NDBC PEA
    NDBC FONSI
    NDBC DQC Handbook

 FAQ
 Visitor Information
 
USA.gov is the U.S. government's official web portal to all federal, state and local government web resources and services.

Hurricane Symbol Storm Special! View the latest observations near East Pacific Tropical Storm Tara.

Station CDXA2 - Cape Decision MXAK, AK Image indicating link to RSS feed of recent meteorological observations for station CDXA2

Owned and maintained by Marine Exchange of Alaska
C-MAN Station
56.001 N 134.136 W (56°0'5" N 134°8'10" W)

Site elevation: 15.2 m above mean sea level
Air temp height: 9.1 m above site elevation
Anemometer height: 9.1 m above site elevation
Barometer elevation: 24.4 m above mean sea level

Search And Rescue (SAR) Data

Meteorological Observations from Nearby Stations and Ships Image indicating link to RSS feed of recent meteorological observations near station CDXA2

Large icon indicates selected station.
yellow diamond Stations with recent data
red diamond Stations with no data in last 8 hours
     (24 hours for tsunami stations)


Conditions at CDXA2 as of
(7:12 am AKDT)
1512 GMT on 10/15/2018:
     

Click on the graph icon in the table below to see a time series plot of the last five days of that observation.

5-day plot - Wind Direction Wind Direction (WDIR): ESE ( 120 deg true )
5-day plot - Wind Speed Wind Speed (WSPD): 17 kts
5-day plot - Wind Gust Wind Gust (GST): 21 kts
5-day plot - Atmospheric Pressure Atmospheric Pressure (PRES): 30.22 in
5-day plot - Air Temperature Air Temperature (ATMP): 50.2 °F
5-day plot - Dew Point Dew Point (DEWP): 46.4 °F
5-day plot - Wind Chill Wind Chill (CHILL): 43.9 °F
5-day plot - Wind Speed at 10 Meters Wind Speed at 10 meters (WSPD10M): 17 kts
5-day plot - Wind Speed at 10 Meters Wind Speed at 20 meters (WSPD20M): 17 kts
5-day plot - Wind Speed, Wind Gust and Atmospheric Pressure Combined plot of Wind Speed, Gust, and Air Pressure
Previous observations
5-day plot - Wind Direction 5-day plot - Wind Speed 5-day plot - Wind Gust 5-day plot - Wave Height 5-day plot - Dominant Wave Period 5-day plot - Average Period 5-day plot - Mean Wave Direction 5-day plot - Atmospheric Pressure 5-day plot - Pressure Tendency 5-day plot - Air Temperature 5-day plot - Water Temperature 5-day plot - Dew Point 5-day plot - Salinity 5-day plot - Visibility 5-day plot - Tide (above MLLW)
MM DD TIME
(AKDT)
WDIR WSPD
kts
GST
kts
WVHT
ft
DPD
sec
APD
sec
MWD PRES
in
PTDY
in
ATMP
°F
WTMP
°F
DEWP
°F
SAL
psu
VIS
nmi
TIDE
ft
1015 7:02 amESE 18 26----30.22- 50.0- 46.6---
1015 6:52 amESE 19 23----30.22- 49.8- 46.6---
1015 6:42 am SE 18 21----30.22- 49.8- 46.6---
1015 6:32 amESE 20 26----30.22- 49.8- 46.8---
1015 6:22 amESE 20 23----30.22- 49.5- 46.8---
1015 6:02 amESE 19 25----30.22- 50.0- 46.9---
1015 5:52 amESE 18 22----30.21- 50.4- 46.9---
1015 5:42 amESE 18 23----30.21- 50.0- 46.9---
1015 5:32 amESE 16 20----30.21- 49.3- 46.8---
1015 5:22 amESE 16 19----30.22- 48.9- 46.8---
1015 5:12 am SE 17 18----30.22- 48.7- 46.6---
1015 5:02 am SE 18 21----30.22- 48.6- 46.6---
1015 4:42 am SE 18 22----30.22- 48.6- 46.4---
1015 4:32 am SE 18 22----30.22- 48.6- 46.4---
1015 4:22 am SE 19 21----30.22- 48.6- 46.4---
1015 4:12 amSSE 21 24----30.22- 48.6- 46.4---
1015 4:02 am SE 16 20----30.22- 48.4- 46.4---
1015 3:52 am SE 19 23----30.22- 48.2- 46.0---
1015 3:42 am SE 16 22----30.22- 48.6- 46.4---
1015 3:32 am SE 17 20----30.22- 48.4- 46.2---
1015 3:22 am SE 18 23----30.22- 48.4- 46.2---
1015 3:12 am SE 20 25----30.22- 48.2- 46.0---
1015 3:02 am SE 19 23----30.22- 48.2- 45.9---
1015 2:52 am SE 19 24----30.22- 48.2- 45.7---
1015 2:42 am SE 16 20----30.22- 48.4- 46.2---
1015 2:32 amSSE 16 21----30.22- 48.2- 46.0---
1015 2:12 am SE 13 19----30.22- 48.0- 45.7---
1015 2:02 am SE 16 21----30.22- 48.2- 45.9---
1015 1:52 am SE 17 21----30.22- 48.2- 45.9---
1015 1:42 amESE 20 24----30.22- 48.2- 45.5---
1015 1:32 am SE 21 24----30.21- 48.6- 45.3---
1015 1:22 am SE 19 22----30.22- 48.6- 45.5---
1015 1:12 am SE 19 23----30.22- 48.7- 45.3---
1015 1:02 amESE 23 25------------
101512:52 am SE 17 22----30.22- 49.3- 45.3---
101512:42 am SE 18 23----30.22- 50.0- 45.3---
101512:32 am SE 16 25----30.22- 49.8- 45.3---
101512:22 am SE 15 24----30.22- 49.8- 45.5---
101512:12 am SE 15 18----30.22- 49.8- 45.3---
101512:02 am SE 18 22----30.22- 49.8- 45.0---
101411:52 pm SE 16 19----30.22- 49.6- 45.3---
101411:42 pmESE 19 25----30.21- 49.1- 45.1---
101411:22 pmESE 14 19----30.21- 49.3- 45.5---
101411:02 pmSSE 18 26----30.22- 50.2- 46.6---
101410:52 pmSSE 21 22------------
101410:42 pmSSE 25 28----30.23- 51.3- 46.8---
101410:32 pmSSE 22 29----30.22- 51.4- 46.4---
101410:22 pmSSE 21 28----30.22- 51.4- 46.6---
101410:12 pm SE 26 26------------
101410:02 pmSSE 23 30----30.22- 51.6- 46.4---
1014 9:52 pmSSE 27 36----30.23- 51.8- 46.6---
1014 9:42 pmSSE 27 33----30.23- 51.1- 46.2---
1014 9:32 pmSSE 29 40----30.23- 50.5- 45.9---
1014 9:22 pmSSE 23 30----30.22- 50.2- 45.7---
1014 9:12 pmSSE 21 26----30.22- 50.0- 45.7---
1014 9:02 pmSSE 24 31----30.22- 50.0- 45.7---
1014 8:52 pmSSE 24 30----30.22- 49.8- 45.7---
1014 8:42 pmSSE 24 31----30.22- 49.6- 45.7---
1014 8:32 pmSSE 25 33----30.22- 49.5- 45.9---
1014 8:22 pm S 29 37----30.22- 49.6- 45.7---
1014 8:12 pm S 26 33----30.22- 49.5- 45.7---
1014 7:52 pm S 26 36----30.22- 49.3- 45.7---
1014 7:42 pm S 27 33----30.21- 49.3- 45.5---
1014 7:22 pm S 22 25------------
1014 7:12 pm S 28 35----30.23- 49.5- 45.9---
1014 7:02 pm S 29 33----30.22- 49.1- 46.2---
1014 6:52 pmSSE 20 38----30.20- 48.7- 46.2---
1014 6:42 pmSSE 22 30----30.19- 48.7- 46.4---
1014 6:32 pmSSE 22 32----30.22- 48.7- 46.9---
1014 6:22 pm S 23 28----30.21- 48.9- 47.1---
1014 6:12 pmSSE 25 31----30.22- 48.7- 46.8---
1014 6:02 pmSSE 25 30----30.22- 48.6- 46.9---
1014 5:52 pmSSE 25 32----30.21- 48.7- 46.9---
1014 5:42 pmSSE 21 26----30.20- 48.6- 46.8---
1014 5:32 pmSSE 25 32----30.21- 48.7- 46.9---
1014 5:22 pmSSE 24 30----30.21- 48.7- 46.9---
1014 5:02 pmSSE 22 30----30.21- 48.7- 47.1---
1014 4:52 pm S 21 26----30.21- 48.7- 46.9---
1014 4:42 pmSSE 24 30----30.22- 48.7- 47.1---
1014 4:32 pmSSE 22 26----30.22- 48.7- 47.1---
1014 4:22 pmSSE 22 27----30.22- 48.6- 47.1---
1014 4:12 pm SE 24 27----30.21- 48.6- 47.1---
1014 3:42 pmSSE 21 26----30.23- 48.6- 47.3---
1014 3:22 pmSSE 20 24----30.22- 48.7- 47.5---
1014 3:12 pm S 16 17------------
1014 3:02 pm S 23 27----30.23- 48.7- 47.3---
1014 2:52 pmSSE 23 36----30.23- 48.7- 47.5---
1014 2:42 pm S 24 34----30.24- 48.7- 47.5---
1014 2:32 pm S 22 29----30.23- 48.7- 47.5---
1014 2:22 pm S 22 28----30.23- 48.7- 47.5---
1014 2:12 pm S 23 29----30.23- 48.6- 47.3---
1014 2:02 pm S 26 30----30.23- 48.6- 47.3---
1014 1:52 pm S 24 33----30.24- 48.6- 47.3---
1014 1:42 pmSSE 22 30----30.23- 48.4- 47.1---
1014 1:32 pmSSE 28 28------------
1014 1:22 pmSSE 20 26----30.24- 48.4- 47.1---
1014 1:12 pmSSE 20 30----30.24- 48.2- 46.8---
1014 1:02 pm S 23 28----30.24- 48.2- 46.9---
101412:53 pmSSE 24 30----30.24- 48.2- 46.8---
101412:42 pmSSE 27 32----30.24- 48.2- 46.8---
101412:32 pmSSE 24 34----30.24- 48.2- 46.9---
101412:22 pm S 23 30----30.24- 48.6- 47.1---
101412:12 pmSSE 20 27----30.23- 48.4- 47.1---
101412:02 pmSSE 24 27----30.24- 48.4- 47.1---
101411:52 amSSE 20 24----30.23- 48.4- 47.1---
101411:42 am S 26 29----30.24- 48.4- 47.1---
101411:32 am S 24 34----30.24- 48.6- 47.3---
101411:22 am S 21 30----30.23- 48.6- 47.1---
101411:12 am S 25 29----30.23- 48.7- 47.3---
101411:02 am S 24 31----30.23- 48.9- 47.1---
101410:52 am S 26 33----30.24- 49.3- 47.3---
101410:42 am S 25 30----30.23- 49.3- 47.1---
101410:32 am S 27 36----30.23- 49.5- 47.3---
101410:22 am S 22 26----30.22- 49.3- 47.3---
101410:12 am S 25 29----30.23- 49.3- 47.3---
101410:02 am S 26 30----30.23- 49.6- 47.5---
1014 9:52 am S 20 25----30.22- 49.6- 47.1---
1014 9:42 am S 23 30----30.22- 49.5- 47.1---
1014 9:32 am S 22 27----30.22- 49.3- 47.3---
1014 9:22 amSSE 23 27----30.21- 49.1- 46.9---
1014 9:12 amSSE 22 29----30.20- 48.9- 46.8---
1014 9:02 amSSE 23 32----30.20- 48.7- 46.8---
1014 8:52 amSSE 23 28----30.21- 48.7- 46.8---
1014 8:42 amSSE 18 23----30.21- 48.4- 46.9---
1014 8:32 amSSE 17 25----30.21- 48.2- 46.8---
1014 8:22 am SE 14 19----30.20- 48.2- 46.6---
1014 8:12 amSSE 16 18----30.21- 47.7- 46.0---
1014 7:52 am SE 14 17----30.20- 47.7- 45.7---
1014 7:42 am SE 19 27----30.19- 47.8- 45.9---
1014 7:32 am SE 19 26----30.19- 47.3- 45.5---
1014 7:22 amESE 19 25----30.18- 47.5- 45.7---
1014 7:12 amESE 18 23----30.19- 47.8- 45.9---
1014 7:02 am SE 21 25----30.19- 47.7- 45.9---
1014 6:52 amESE 17 24----30.19- 47.5- 45.9---

Description of Measurements

Links which are specific to this station are listed below:

Real Time Data in tabular form for the last forty-five days.

Historical Data & Climatic Summaries for quality controlled data for the current month, previous months, and previous years.